Location: Kellogg
(38.0159°N, 90.0546°W)
Time: 15:54:58
(UTC+00:00)

Courier 1B - Pass Details

Date: 14 September 2024
Orbit: 962 x 1208 km, 28.3° (Epoch: 07 October)

Event Time Altitude Azimuth Distance (km) Brightness Sun altitude
Rises 19:17:20 0° 221° (SW) 3,831 11.2 50.3°
Reaches altitude 10° 19:20:37 10° 207° (SSW) 2,922 10.9 49.9°
Maximum altitude 19:26:02 23° 158° (SSE) 2,182 10.0 49.3°
Drops below altitude 10° 19:31:40 10° 109° (ESE) 3,061 10.1 48.6°
Sets 19:35:11 0° 96° (E) 4,057 10.5 48.2°
